VIR48WE CYYZ-EGLL

Flight info

Callsign VIR48WE
Flight time 6h 30m
Altitude 39000
Route N0496F390 VERDO7 LORKA DCT YBC/N0494F410 DCT LOMSI DCT 5430N05000W/M085F410 DCT 5530N04000W DCT 56N030W DCT 56N020W DCT PIKIL DCT SOVED DCT LUTOV/N0486F410 DCT KELLY L10 WAL UY53 NUGRA
Aircraft A35K/H-SBDE3GHIJ1J2J3J5M1P2RVWXYZ/LB2D1G1

Departure

Time 2026-05-04 13:09
Airport Toronto Pearson International Airport (CYYZ)

Arrival

Time 2026-05-04 19:40
Airport London Heathrow Airport (EGLL)
Time Latitude Longitude Altitude Speed Heading
2026-05-04 12:36 43.68174 -79.62037 575 ft 0 kts 32°
2026-05-04 12:57 43.68172 -79.62039 567 ft 2 kts 32°
2026-05-04 12:58 43.68152 -79.62056 576 ft 4 kts 32°
2026-05-04 12:58 43.68130 -79.62075 571 ft 3 kts 32°
2026-05-04 12:58 43.68110 -79.62089 572 ft 4 kts
2026-05-04 12:58 43.68088 -79.62081 572 ft 4 kts 317°
2026-05-04 12:59 43.68070 -79.62056 573 ft 2 kts 316°
2026-05-04 12:59 43.68070 -79.62055 573 ft 0 kts 316°
2026-05-04 13:01 43.68072 -79.62057 567 ft 2 kts 317°
2026-05-04 13:02 43.68088 -79.62079 570 ft 5 kts 317°
2026-05-04 13:02 43.68122 -79.62122 574 ft 8 kts 317°
2026-05-04 13:02 43.68171 -79.62185 576 ft 11 kts 316°
2026-05-04 13:02 43.68234 -79.62267 576 ft 14 kts 316°
2026-05-04 13:03 43.68294 -79.62360 575 ft 8 kts 280°
2026-05-04 13:03 43.68269 -79.62428 569 ft 8 kts 250°
2026-05-04 13:03 43.68288 -79.62495 570 ft 8 kts 312°
2026-05-04 13:03 43.68334 -79.62558 575 ft 11 kts 315°
2026-05-04 13:04 43.68393 -79.62636 575 ft 13 kts 316°
2026-05-04 13:04 43.68465 -79.62730 574 ft 16 kts 317°
2026-05-04 13:04 43.68550 -79.62840 575 ft 18 kts 316°
2026-05-04 13:04 43.68643 -79.62962 576 ft 18 kts 317°
2026-05-04 13:05 43.68740 -79.63088 576 ft 20 kts 316°
2026-05-04 13:05 43.68845 -79.63226 574 ft 22 kts 316°
2026-05-04 13:05 43.68937 -79.63346 573 ft 9 kts 317°
2026-05-04 13:05 43.68983 -79.63405 577 ft 10 kts 317°
2026-05-04 13:06 43.69043 -79.63484 576 ft 13 kts 316°
2026-05-04 13:06 43.69105 -79.63526 574 ft 8 kts 11°
2026-05-04 13:06 43.69153 -79.63480 579 ft 9 kts 41°
2026-05-04 13:06 43.69217 -79.63426 579 ft 13 kts
2026-05-04 13:07 43.69313 -79.63414 574 ft 14 kts 18°
2026-05-04 13:07 43.69365 -79.63374 579 ft 6 kts 36°
2026-05-04 13:07 43.69398 -79.63340 577 ft 6 kts 36°
2026-05-04 13:07 43.69445 -79.63315 575 ft 9 kts
2026-05-04 13:08 43.69497 -79.63367 576 ft 10 kts 283°
2026-05-04 13:08 43.69464 -79.63441 577 ft 10 kts 224°
2026-05-04 13:08 43.69405 -79.63525 574 ft 15 kts 226°
2026-05-04 13:08 43.69205 -79.63814 575 ft 76 kts 226°
2026-05-04 13:09 43.68688 -79.64563 573 ft 138 kts 226°
2026-05-04 13:09 43.67959 -79.65602 1103 ft 149 kts 226°
2026-05-04 13:09 43.67246 -79.66673 1862 ft 155 kts 231°
2026-05-04 13:09 43.66518 -79.67883 2304 ft 179 kts 231°
2026-05-04 13:10 43.65588 -79.69271 2664 ft 208 kts 229°
2026-05-04 13:10 43.64366 -79.70531 3089 ft 237 kts 210°
2026-05-04 13:10 43.62683 -79.70941 3745 ft 259 kts 176°
2026-05-04 13:10 43.60979 -79.69986 4658 ft 269 kts 153°
2026-05-04 13:11 43.59389 -79.68743 5524 ft 273 kts 154°
2026-05-04 13:11 43.57836 -79.67314 6370 ft 281 kts 148°
2026-05-04 13:11 43.56303 -79.65579 7211 ft 287 kts 145°
2026-05-04 13:11 43.54689 -79.63949 8120 ft 289 kts 151°
2026-05-04 13:12 43.53077 -79.62211 9072 ft 296 kts 143°
2026-05-04 13:12 43.51625 -79.60139 9927 ft 308 kts 128°
2026-05-04 13:12 43.50764 -79.57341 10397 ft 334 kts 100°
2026-05-04 13:12 43.50884 -79.54058 10765 ft 355 kts 74°
2026-05-04 13:13 43.51582 -79.50728 11380 ft 367 kts 71°
2026-05-04 13:13 43.52319 -79.47365 12222 ft 373 kts 71°
2026-05-04 13:13 43.53066 -79.43911 13115 ft 378 kts 69°
2026-05-04 13:13 43.54085 -79.40572 13964 ft 380 kts 60°
2026-05-04 13:14 43.55281 -79.37290 14721 ft 384 kts 59°
2026-05-04 13:14 43.56503 -79.33988 15534 ft 388 kts 59°
2026-05-04 13:14 43.57731 -79.30650 16367 ft 391 kts 59°
2026-05-04 13:14 43.58955 -79.27300 17201 ft 394 kts 60°
2026-05-04 13:15 43.60191 -79.23904 18051 ft 397 kts 60°
2026-05-04 13:15 43.61437 -79.20469 18811 ft 402 kts 60°
2026-05-04 13:15 43.62678 -79.17045 19521 ft 406 kts 59°
2026-05-04 13:15 43.63948 -79.13532 20254 ft 410 kts 59°
2026-05-04 13:16 43.65225 -79.09994 20980 ft 414 kts 59°
2026-05-04 13:16 43.66521 -79.06399 21731 ft 418 kts 59°
2026-05-04 13:16 43.67821 -79.02787 22469 ft 422 kts 59°
2026-05-04 13:16 43.69131 -78.99140 23203 ft 426 kts 58°
2026-05-04 13:17 43.70453 -78.95459 23808 ft 430 kts 58°
2026-05-04 13:17 43.71791 -78.91726 24387 ft 434 kts 58°
2026-05-04 13:17 43.73136 -78.87968 24980 ft 438 kts 58°
2026-05-04 13:17 43.74478 -78.84214 25546 ft 442 kts 58°
2026-05-04 13:18 43.75844 -78.80387 26130 ft 445 kts 58°
2026-05-04 13:18 43.77222 -78.76522 26716 ft 449 kts 58°
2026-05-04 13:18 43.78601 -78.72609 27304 ft 453 kts 59°
2026-05-04 13:18 43.79966 -78.68657 27872 ft 457 kts 59°
2026-05-04 13:19 43.81341 -78.64667 28417 ft 462 kts 59°
2026-05-04 13:19 43.82261 -78.61997 28771 ft 464 kts 59°
2026-05-04 13:19 43.84131 -78.56572 29484 ft 469 kts 59°
2026-05-04 13:19 43.85524 -78.52525 29979 ft 473 kts 59°
2026-05-04 13:20 43.86943 -78.48401 30423 ft 476 kts 59°
2026-05-04 13:20 43.88372 -78.44241 30855 ft 480 kts 59°
2026-05-04 13:20 43.89810 -78.40049 31272 ft 483 kts 59°
2026-05-04 13:20 43.91257 -78.35825 31692 ft 486 kts 59°
2026-05-04 13:21 43.92710 -78.31577 32092 ft 489 kts 59°
2026-05-04 13:21 43.93676 -78.28748 32352 ft 490 kts 59°
2026-05-04 13:21 43.95142 -78.24452 32734 ft 493 kts 59°
2026-05-04 13:21 43.96615 -78.20127 33105 ft 496 kts 59°
2026-05-04 13:22 43.98094 -78.15777 33470 ft 499 kts 59°
2026-05-04 13:22 43.99576 -78.11411 33822 ft 502 kts 58°
2026-05-04 13:22 44.01069 -78.07008 34122 ft 503 kts 59°
2026-05-04 13:22 44.02561 -78.02593 34473 ft 504 kts 59°
2026-05-04 13:23 44.04051 -77.98180 34819 ft 505 kts 59°
2026-05-04 13:23 44.05543 -77.93756 35143 ft 506 kts 59°
2026-05-04 13:23 44.07037 -77.89320 35424 ft 507 kts 60°
2026-05-04 13:23 44.08534 -77.84866 35735 ft 508 kts 60°
2026-05-04 13:24 44.10030 -77.80409 36039 ft 509 kts 60°
2026-05-04 13:24 44.11528 -77.75938 36330 ft 510 kts 60°
2026-05-04 13:24 44.13031 -77.71445 36626 ft 511 kts 60°
2026-05-04 13:25 44.16012 -77.62508 37214 ft 513 kts 61°
2026-05-04 13:25 44.17515 -77.57993 37485 ft 514 kts 61°
2026-05-04 13:25 44.19018 -77.53471 37744 ft 515 kts 61°
2026-05-04 13:25 44.20667 -77.49037 37994 ft 512 kts 55°
2026-05-04 13:26 44.22522 -77.44809 38248 ft 512 kts 54°
2026-05-04 13:26 44.24417 -77.40606 38478 ft 512 kts 54°
2026-05-04 13:26 44.26316 -77.36400 38667 ft 513 kts 54°
2026-05-04 13:26 44.28224 -77.32167 38776 ft 515 kts 54°
2026-05-04 13:27 44.32034 -77.23681 38786 ft 516 kts 54°
2026-05-04 13:27 44.35823 -77.15210 38780 ft 517 kts 54°
2026-05-04 13:28 44.39631 -77.06669 38796 ft 517 kts 54°
2026-05-04 13:28 44.43433 -76.98117 38798 ft 517 kts 54°
2026-05-04 13:29 44.47228 -76.89553 38785 ft 518 kts 54°
2026-05-04 13:29 44.51024 -76.80963 38794 ft 518 kts 54°
2026-05-04 13:30 44.54814 -76.72362 38791 ft 518 kts 54°
2026-05-04 13:30 44.58593 -76.63758 38789 ft 519 kts 55°
2026-05-04 13:31 44.62373 -76.55127 38785 ft 519 kts 55°
2026-05-04 13:31 44.66149 -76.46477 38783 ft 519 kts 55°
2026-05-04 13:32 44.69898 -76.37866 38781 ft 519 kts 55°
2026-05-04 13:32 44.73671 -76.29170 38776 ft 520 kts 55°
2026-05-04 13:33 44.77611 -76.20678 38779 ft 516 kts 47°
2026-05-04 13:33 44.82219 -76.13014 38773 ft 515 kts 45°
2026-05-04 13:34 44.86993 -76.05482 38768 ft 515 kts 44°
2026-05-04 13:34 44.91761 -75.97941 38769 ft 515 kts 45°
2026-05-04 13:35 44.98876 -75.86537 38758 ft 516 kts 45°
2026-05-04 13:36 45.03607 -75.78902 38754 ft 516 kts 45°
2026-05-04 13:36 45.08335 -75.71253 38763 ft 516 kts 45°
2026-05-04 13:37 45.13028 -75.63641 38748 ft 516 kts 45°
2026-05-04 13:37 45.17741 -75.55978 38747 ft 516 kts 46°
2026-05-04 13:38 45.22456 -75.48289 38747 ft 516 kts 46°
2026-05-04 13:38 45.27162 -75.40595 38744 ft 516 kts 46°
2026-05-04 13:39 45.31863 -75.32888 38744 ft 516 kts 46°
2026-05-04 13:39 45.36558 -75.25168 38742 ft 516 kts 46°
2026-05-04 13:40 45.41217 -75.17488 38746 ft 516 kts 46°
2026-05-04 13:40 45.45897 -75.09751 38742 ft 515 kts 46°
2026-05-04 13:41 45.50568 -75.02006 38739 ft 515 kts 46°
2026-05-04 13:41 45.55240 -74.94240 38741 ft 515 kts 46°
2026-05-04 13:42 45.62234 -74.82573 38741 ft 515 kts 47°
2026-05-04 13:42 45.66886 -74.74784 38739 ft 515 kts 47°
2026-05-04 13:43 45.71529 -74.66989 38735 ft 515 kts 47°
2026-05-04 13:43 45.76150 -74.59211 38737 ft 515 kts 47°
2026-05-04 13:44 45.80786 -74.51384 38736 ft 515 kts 47°
2026-05-04 13:44 45.85420 -74.43540 38735 ft 516 kts 47°
2026-05-04 13:45 45.90060 -74.35662 38743 ft 517 kts 47°
2026-05-04 13:45 45.94693 -74.27775 38736 ft 517 kts 47°
2026-05-04 13:46 45.99330 -74.19857 38731 ft 517 kts 47°
2026-05-04 13:46 46.03964 -74.11922 38733 ft 517 kts 47°
2026-05-04 13:47 46.08560 -74.04028 38724 ft 517 kts 48°
2026-05-04 13:47 46.13178 -73.96075 38738 ft 517 kts 48°
2026-05-04 13:48 46.17787 -73.88116 38721 ft 517 kts 48°
2026-05-04 13:48 46.22397 -73.80131 38734 ft 517 kts 48°
2026-05-04 13:49 46.27004 -73.72129 38729 ft 517 kts 48°
2026-05-04 13:49 46.31568 -73.64177 38750 ft 517 kts 48°
2026-05-04 13:50 46.36150 -73.56172 38750 ft 517 kts 48°
2026-05-04 13:50 46.40737 -73.48134 38744 ft 517 kts 49°
2026-05-04 13:51 46.45313 -73.40093 38742 ft 516 kts 49°
2026-05-04 13:51 46.49875 -73.32052 38753 ft 516 kts 49°
2026-05-04 13:52 46.56682 -73.20012 38760 ft 516 kts 49°
2026-05-04 13:53 46.61228 -73.11942 38754 ft 515 kts 49°
2026-05-04 13:53 46.65764 -73.03863 38758 ft 515 kts 49°
2026-05-04 13:54 46.72559 -72.91720 38766 ft 515 kts 49°
2026-05-04 13:55 46.79299 -72.79624 38757 ft 514 kts 49°
2026-05-04 13:55 46.86045 -72.67460 38758 ft 514 kts 50°
2026-05-04 13:56 46.90538 -72.59330 38762 ft 514 kts 50°
2026-05-04 13:57 46.97287 -72.47073 38758 ft 517 kts 50°
2026-05-04 13:58 47.06285 -72.30646 38767 ft 518 kts 50°
2026-05-04 13:58 47.13048 -72.18233 38757 ft 519 kts 50°
2026-05-04 13:59 47.17545 -72.09947 38754 ft 519 kts 50°
2026-05-04 14:00 47.24294 -71.97466 38751 ft 519 kts 50°
2026-05-04 14:00 47.31029 -71.84953 38745 ft 519 kts 50°
2026-05-04 14:01 47.35485 -71.76645 38741 ft 519 kts 51°
2026-05-04 14:02 47.42195 -71.64083 38732 ft 519 kts 51°
2026-05-04 14:02 47.46653 -71.55706 38726 ft 519 kts 51°
2026-05-04 14:03 47.51115 -71.47294 38726 ft 519 kts 51°
2026-05-04 14:03 47.55538 -71.38932 38726 ft 519 kts 51°
2026-05-04 14:04 47.62189 -71.26308 38715 ft 517 kts 51°
2026-05-04 14:04 47.66606 -71.17893 38713 ft 516 kts 51°
2026-05-04 14:05 47.73196 -71.05289 38718 ft 515 kts 52°
2026-05-04 14:06 47.77583 -70.96864 38715 ft 515 kts 52°
2026-05-04 14:06 47.81937 -70.88480 38721 ft 515 kts 52°
2026-05-04 14:07 47.86311 -70.80030 38726 ft 515 kts 52°
2026-05-04 14:07 47.90678 -70.71567 38739 ft 515 kts 52°
2026-05-04 14:08 47.95047 -70.63073 38733 ft 516 kts 52°
2026-05-04 14:08 47.99415 -70.54554 38743 ft 517 kts 52°
2026-05-04 14:09 48.05215 -70.43201 38748 ft 516 kts 53°
2026-05-04 14:10 48.11729 -70.30396 38742 ft 515 kts 53°
2026-05-04 14:10 48.16066 -70.21837 38735 ft 515 kts 53°
2026-05-04 14:11 48.20389 -70.13277 38733 ft 515 kts 53°
2026-05-04 14:11 48.26866 -70.00402 38727 ft 516 kts 53°
2026-05-04 14:12 48.31184 -69.91784 38718 ft 516 kts 53°
2026-05-04 14:13 48.37624 -69.78880 38711 ft 517 kts 53°
2026-05-04 14:13 48.41932 -69.70216 38715 ft 517 kts 53°
2026-05-04 14:14 48.46238 -69.61524 38704 ft 516 kts 53°
2026-05-04 14:14 48.52670 -69.48493 38699 ft 516 kts 53°
2026-05-04 14:15 48.61220 -69.31069 38690 ft 517 kts 54°
2026-05-04 14:16 48.67596 -69.18003 38688 ft 517 kts 54°
2026-05-04 14:17 48.73986 -69.04845 38676 ft 516 kts 54°
2026-05-04 14:18 48.80333 -68.91710 38667 ft 514 kts 54°
2026-05-04 14:19 48.88763 -68.74166 38662 ft 514 kts 54°
2026-05-04 14:19 48.92967 -68.65374 38657 ft 514 kts 54°
2026-05-04 14:20 48.97167 -68.56561 38641 ft 514 kts 55°
2026-05-04 14:20 49.01339 -68.47779 38644 ft 515 kts 55°
2026-05-04 14:21 49.07624 -68.34493 38628 ft 514 kts 55°
2026-05-04 14:21 49.11806 -68.25616 38675 ft 515 kts 55°
2026-05-04 14:22 49.13897 -68.21166 38862 ft 515 kts 55°
2026-05-04 14:22 49.15907 -68.16723 39084 ft 514 kts 57°
2026-05-04 14:22 49.17867 -68.12155 39297 ft 513 kts 58°
2026-05-04 14:22 49.19795 -68.07556 39480 ft 513 kts 58°
2026-05-04 14:23 49.23636 -67.98365 39846 ft 512 kts 58°
2026-05-04 14:23 49.25562 -67.93787 40010 ft 512 kts 58°
2026-05-04 14:23 49.27496 -67.89208 40171 ft 512 kts 58°
2026-05-04 14:24 49.29433 -67.84632 40307 ft 512 kts 58°
2026-05-04 14:24 49.31377 -67.80037 40463 ft 512 kts 58°
2026-05-04 14:24 49.33320 -67.75444 40576 ft 513 kts 58°
2026-05-04 14:25 49.37184 -67.66280 40601 ft 515 kts 58°
2026-05-04 14:25 49.43006 -67.52410 40591 ft 514 kts 58°
2026-05-04 14:26 49.46865 -67.43174 40590 ft 513 kts 58°
2026-05-04 14:26 49.50711 -67.33935 40583 ft 512 kts 58°
2026-05-04 14:27 49.54525 -67.24741 40574 ft 512 kts 58°
2026-05-04 14:27 49.58348 -67.15495 40575 ft 511 kts 58°
2026-05-04 14:28 49.62160 -67.06240 40568 ft 511 kts 58°
2026-05-04 14:28 49.65969 -66.96962 40570 ft 511 kts 58°
2026-05-04 14:29 49.73525 -66.78461 40549 ft 511 kts 59°
2026-05-04 14:30 49.77314 -66.69133 40560 ft 512 kts 59°
2026-05-04 14:31 49.82991 -66.55096 40550 ft 512 kts 59°
2026-05-04 14:32 49.90526 -66.36351 40540 ft 512 kts 59°
2026-05-04 14:32 49.94253 -66.27028 40524 ft 511 kts 60°
2026-05-04 14:33 49.98000 -66.17622 40513 ft 512 kts 59°
2026-05-04 14:33 50.01735 -66.08212 40505 ft 511 kts 60°
2026-05-04 14:34 50.05466 -65.98780 40504 ft 509 kts 60°
2026-05-04 14:34 50.09167 -65.89387 40500 ft 508 kts 60°
2026-05-04 14:35 50.12832 -65.80054 40495 ft 508 kts 60°
2026-05-04 14:35 50.16522 -65.70624 40491 ft 508 kts 60°
2026-05-04 14:36 50.20194 -65.61206 40473 ft 508 kts 60°
2026-05-04 14:36 50.23859 -65.51771 40470 ft 508 kts 60°
2026-05-04 14:37 50.27524 -65.42300 40475 ft 508 kts 60°
2026-05-04 14:37 50.31177 -65.32828 40464 ft 508 kts 61°
2026-05-04 14:38 50.34821 -65.23344 40446 ft 508 kts 61°
2026-05-04 14:38 50.38450 -65.13866 40445 ft 507 kts 62°
2026-05-04 14:39 50.42045 -65.04442 40444 ft 507 kts 61°
2026-05-04 14:39 50.45653 -64.94946 40424 ft 506 kts 61°
2026-05-04 14:40 50.51049 -64.80687 40427 ft 506 kts 62°
2026-05-04 14:40 50.54632 -64.71170 40413 ft 506 kts 62°
2026-05-04 14:41 50.58214 -64.61623 40408 ft 506 kts 62°
2026-05-04 14:42 50.65348 -64.42502 40404 ft 506 kts 62°
2026-05-04 14:42 50.68907 -64.32909 40387 ft 507 kts 62°
2026-05-04 14:43 50.72458 -64.23303 40387 ft 507 kts 62°
2026-05-04 14:43 50.75979 -64.13742 40388 ft 507 kts 62°
2026-05-04 14:44 50.79527 -64.04073 40383 ft 507 kts 62°
2026-05-04 14:44 50.83055 -63.94422 40370 ft 505 kts 62°
2026-05-04 14:45 50.86544 -63.84842 40373 ft 505 kts 62°
2026-05-04 14:45 50.90046 -63.75187 40374 ft 505 kts 63°
2026-05-04 14:46 50.93536 -63.65531 40355 ft 505 kts 63°
2026-05-04 14:46 50.97028 -63.55832 40360 ft 506 kts 63°
2026-05-04 14:47 51.00490 -63.46177 40365 ft 506 kts 63°
2026-05-04 14:47 51.03964 -63.36456 40364 ft 506 kts 63°
2026-05-04 14:48 51.07431 -63.26716 40353 ft 506 kts 63°
2026-05-04 14:48 51.10893 -63.16955 40344 ft 506 kts 63°
2026-05-04 14:49 51.14335 -63.07213 40354 ft 504 kts 63°
2026-05-04 14:49 51.17739 -62.97538 40340 ft 503 kts 63°
2026-05-04 14:50 51.21156 -62.87789 40338 ft 503 kts 63°
2026-05-04 14:50 51.24567 -62.78020 40341 ft 503 kts 63°
2026-05-04 14:51 51.27961 -62.68261 40339 ft 502 kts 64°
2026-05-04 14:51 51.31326 -62.58550 40328 ft 501 kts 64°
2026-05-04 14:52 51.34696 -62.48787 40328 ft 501 kts 64°
2026-05-04 14:52 51.38054 -62.39018 40332 ft 501 kts 64°
2026-05-04 14:53 51.41410 -62.29220 40319 ft 501 kts 64°
2026-05-04 14:53 51.44753 -62.19421 40325 ft 500 kts 64°
2026-05-04 14:54 51.48065 -62.09673 40329 ft 500 kts 64°
2026-05-04 14:54 51.51390 -61.99852 40329 ft 500 kts 64°
2026-05-04 14:55 51.54707 -61.90013 40315 ft 501 kts 64°
2026-05-04 14:55 51.58022 -61.80143 40316 ft 501 kts 64°
2026-05-04 14:56 51.61307 -61.70322 40320 ft 502 kts 64°
2026-05-04 14:56 51.64605 -61.60425 40309 ft 502 kts 64°
2026-05-04 14:57 51.67896 -61.50507 40312 ft 502 kts 64°
2026-05-04 14:57 51.71179 -61.40577 40298 ft 502 kts 65°
2026-05-04 14:58 51.73903 -61.32305 40313 ft 503 kts 65°
2026-05-04 14:58 51.77178 -61.22323 40302 ft 503 kts 65°
2026-05-04 14:59 51.80452 -61.12306 40305 ft 503 kts 65°
2026-05-04 15:00 51.85344 -60.97258 40310 ft 504 kts 65°
2026-05-04 15:00 51.88601 -60.87193 40316 ft 505 kts 65°
2026-05-04 15:01 51.93467 -60.72074 40314 ft 505 kts 65°
2026-05-04 15:01 51.96684 -60.62028 40320 ft 505 kts 65°
2026-05-04 15:02 51.99916 -60.51891 40308 ft 505 kts 65°
2026-05-04 15:02 52.03132 -60.41765 40312 ft 505 kts 66°
2026-05-04 15:03 52.06325 -60.31667 40312 ft 505 kts 66°
2026-05-04 15:03 52.09529 -60.21496 40293 ft 505 kts 66°
2026-05-04 15:04 52.12732 -60.11285 40314 ft 504 kts 66°
2026-05-04 15:04 52.15909 -60.01115 40315 ft 504 kts 66°
2026-05-04 15:05 52.19082 -59.90912 40323 ft 504 kts 66°
2026-05-04 15:05 52.22243 -59.80707 40317 ft 504 kts 66°
2026-05-04 15:06 52.25372 -59.70562 40315 ft 504 kts 67°
2026-05-04 15:07 52.30084 -59.55203 40316 ft 504 kts 67°
2026-05-04 15:07 52.33206 -59.44972 40322 ft 503 kts 67°
2026-05-04 15:08 52.36318 -59.34734 40330 ft 502 kts 67°
2026-05-04 15:08 52.39416 -59.24496 40328 ft 500 kts 67°
2026-05-04 15:09 52.42489 -59.14298 40332 ft 499 kts 67°
2026-05-04 15:09 52.45551 -59.04092 40323 ft 498 kts 68°
2026-05-04 15:10 52.50120 -58.88779 40338 ft 497 kts 68°
2026-05-04 15:11 52.54662 -58.73462 40339 ft 497 kts 68°
2026-05-04 15:11 52.57679 -58.63230 40339 ft 497 kts 68°
2026-05-04 15:12 52.60669 -58.53049 40353 ft 498 kts 68°
2026-05-04 15:12 52.63675 -58.42770 40355 ft 499 kts 68°
2026-05-04 15:13 52.66674 -58.32471 40343 ft 499 kts 68°
2026-05-04 15:13 52.69672 -58.22125 40353 ft 500 kts 68°
2026-05-04 15:14 52.72667 -58.11751 40339 ft 501 kts 68°
2026-05-04 15:14 52.75664 -58.01319 40359 ft 504 kts 68°
2026-05-04 15:15 52.78660 -57.90845 40359 ft 504 kts 68°
2026-05-04 15:15 52.81628 -57.80426 40368 ft 504 kts 68°
2026-05-04 15:16 52.86093 -57.64664 40354 ft 504 kts 69°
2026-05-04 15:17 52.90547 -57.48827 40377 ft 507 kts 69°
2026-05-04 15:17 52.94994 -57.32916 40373 ft 507 kts 69°
2026-05-04 15:18 52.97947 -57.22286 40378 ft 507 kts 69°
2026-05-04 15:19 53.02341 -57.06380 40389 ft 507 kts 69°
2026-05-04 15:19 53.06728 -56.90385 40390 ft 507 kts 69°
2026-05-04 15:20 53.09641 -56.79705 40390 ft 506 kts 69°
2026-05-04 15:20 53.12422 -56.68937 40388 ft 505 kts 72°
2026-05-04 15:21 53.14980 -56.58057 40401 ft 504 kts 72°
2026-05-04 15:22 53.18803 -56.41772 40401 ft 500 kts 73°
2026-05-04 15:22 53.22610 -56.25713 40404 ft 497 kts 73°
2026-05-04 15:23 53.25143 -56.14981 40414 ft 497 kts 73°
2026-05-04 15:23 53.27662 -56.04257 40409 ft 494 kts 73°
2026-05-04 15:24 53.32644 -55.82877 40414 ft 493 kts 74°
2026-05-04 15:25 53.35115 -55.72186 40415 ft 492 kts 74°
2026-05-04 15:26 53.38805 -55.56130 40409 ft 492 kts 74°
2026-05-04 15:26 53.42447 -55.40165 40426 ft 490 kts 74°
2026-05-04 15:27 53.46073 -55.24143 40434 ft 489 kts 74°
2026-05-04 15:28 53.49676 -55.08101 40440 ft 489 kts 74°
2026-05-04 15:29 53.53249 -54.92071 40451 ft 489 kts 75°
2026-05-04 15:30 53.61499 -54.54580 40463 ft 489 kts 75°
2026-05-04 15:31 53.65005 -54.38440 40459 ft 489 kts 75°
2026-05-04 15:32 53.70790 -54.11524 40475 ft 489 kts 75°
2026-05-04 15:34 53.76535 -53.84439 40508 ft 490 kts 75°
2026-05-04 15:34 53.79937 -53.68229 40483 ft 490 kts 75°
2026-05-04 15:35 53.83341 -53.51873 40516 ft 491 kts 75°
2026-05-04 15:36 53.86726 -53.35480 40525 ft 492 kts 76°
2026-05-04 15:36 53.88973 -53.24518 40526 ft 492 kts 76°
2026-05-04 15:37 53.91214 -53.13531 40535 ft 492 kts 76°
2026-05-04 15:37 53.93425 -53.02627 40539 ft 492 kts 76°
2026-05-04 15:38 53.95641 -52.91642 40547 ft 492 kts 76°
2026-05-04 15:38 53.97849 -52.80631 40542 ft 492 kts 76°
2026-05-04 15:39 54.00046 -52.69608 40565 ft 493 kts 76°
2026-05-04 15:40 54.03331 -52.53015 40573 ft 494 kts 76°
2026-05-04 15:40 54.05499 -52.41991 40574 ft 494 kts 76°
2026-05-04 15:41 54.07667 -52.30901 40559 ft 494 kts 76°
2026-05-04 15:41 54.09831 -52.19769 40582 ft 494 kts 76°
2026-05-04 15:42 54.11970 -52.08697 40585 ft 495 kts 76°
2026-05-04 15:42 54.14113 -51.97541 40597 ft 495 kts 77°
2026-05-04 15:43 54.16245 -51.86379 40597 ft 495 kts 77°
2026-05-04 15:43 54.18369 -51.75193 40591 ft 494 kts 77°
2026-05-04 15:44 54.20486 -51.63972 40608 ft 497 kts 77°
2026-05-04 15:44 54.22600 -51.52702 40625 ft 498 kts 77°
2026-05-04 15:45 54.24706 -51.41416 40626 ft 498 kts 77°
2026-05-04 15:45 54.26791 -51.30170 40639 ft 498 kts 77°
2026-05-04 15:46 54.28873 -51.18871 40636 ft 498 kts 77°
2026-05-04 15:46 54.30613 -51.09375 40654 ft 499 kts 77°
2026-05-04 15:47 54.32667 -50.98097 40656 ft 499 kts 77°
2026-05-04 15:47 54.34725 -50.86729 40666 ft 499 kts 77°
2026-05-04 15:48 54.36774 -50.75347 40651 ft 499 kts 77°
2026-05-04 15:48 54.39830 -50.58227 40665 ft 501 kts 78°
2026-05-04 15:49 54.41865 -50.46735 40701 ft 503 kts 78°
2026-05-04 15:49 54.43881 -50.35285 40700 ft 504 kts 78°
2026-05-04 15:50 54.45901 -50.23741 40711 ft 504 kts 78°
2026-05-04 15:50 54.47910 -50.12189 40711 ft 504 kts 78°
2026-05-04 15:51 54.49906 -50.00631 40710 ft 504 kts 78°
2026-05-04 15:51 54.51735 -49.88988 40725 ft 504 kts 81°
2026-05-04 15:52 54.53345 -49.77240 40736 ft 504 kts 81°
2026-05-04 15:52 54.54956 -49.65468 40739 ft 506 kts 81°
2026-05-04 15:53 54.56590 -49.53724 40748 ft 507 kts 81°
2026-05-04 15:53 54.58240 -49.41915 40762 ft 507 kts 81°
2026-05-04 15:54 54.59881 -49.30093 40760 ft 506 kts 81°
2026-05-04 15:54 54.61509 -49.18255 40785 ft 506 kts 81°
2026-05-04 15:55 54.63114 -49.06480 40785 ft 506 kts 81°
2026-05-04 15:55 54.64715 -48.94646 40778 ft 506 kts 81°
2026-05-04 15:56 54.66303 -48.82808 40779 ft 506 kts 81°
2026-05-04 15:56 54.67883 -48.70930 40792 ft 508 kts 81°
2026-05-04 15:57 54.69455 -48.59020 40796 ft 509 kts 81°
2026-05-04 15:57 54.71020 -48.47072 40803 ft 509 kts 81°
2026-05-04 15:58 54.72561 -48.35205 40802 ft 509 kts 81°
2026-05-04 15:58 54.74101 -48.23245 40814 ft 509 kts 82°
2026-05-04 15:59 54.75628 -48.11286 40811 ft 509 kts 81°
2026-05-04 15:59 54.77145 -47.99302 40834 ft 510 kts 81°
2026-05-04 16:00 54.78654 -47.87282 40836 ft 510 kts 81°
2026-05-04 16:00 54.80150 -47.75254 40847 ft 510 kts 82°
2026-05-04 16:01 54.81627 -47.63286 40856 ft 510 kts 82°
2026-05-04 16:01 54.83100 -47.51243 40852 ft 510 kts 81°
2026-05-04 16:02 54.84565 -47.39146 40862 ft 512 kts 81°
2026-05-04 16:03 54.86740 -47.21000 40882 ft 512 kts 82°
2026-05-04 16:03 54.88180 -47.08853 40882 ft 512 kts 82°
2026-05-04 16:04 54.89604 -46.96725 40891 ft 512 kts 82°
2026-05-04 16:04 54.91711 -46.78564 40910 ft 516 kts 81°
2026-05-04 16:05 54.93117 -46.66313 40912 ft 517 kts 81°
2026-05-04 16:06 54.95204 -46.47908 40924 ft 517 kts 82°
2026-05-04 16:07 54.97941 -46.23352 40933 ft 517 kts 81°
2026-05-04 16:08 55.00624 -45.98809 40956 ft 517 kts 81°
2026-05-04 16:09 55.03922 -45.67948 40974 ft 518 kts 81°
2026-05-04 16:10 55.06510 -45.43168 40982 ft 519 kts 81°
2026-05-04 16:11 55.09041 -45.18425 40998 ft 519 kts 81°
2026-05-04 16:12 55.12755 -44.81124 41018 ft 520 kts 81°
2026-05-04 16:13 55.15172 -44.56174 41035 ft 520 kts 81°
2026-05-04 16:14 55.17531 -44.31274 41046 ft 520 kts 81°
2026-05-04 16:16 55.20407 -44.00123 41058 ft 518 kts 81°
2026-05-04 16:17 55.23201 -43.68946 41091 ft 520 kts 81°
2026-05-04 16:18 55.25383 -43.43928 41097 ft 519 kts 81°
2026-05-04 16:19 55.28038 -43.12635 41110 ft 519 kts 81°
2026-05-04 16:20 55.30617 -42.81240 41127 ft 520 kts 81°
2026-05-04 16:22 55.33112 -42.49842 41133 ft 520 kts 82°
2026-05-04 16:23 55.36000 -42.12115 41156 ft 519 kts 82°
2026-05-04 16:25 55.38776 -41.74267 41174 ft 520 kts 82°
2026-05-04 16:26 55.41863 -41.30119 41190 ft 520 kts 82°
2026-05-04 16:28 55.43971 -40.98520 41202 ft 518 kts 82°
2026-05-04 16:29 55.46767 -40.54542 41224 ft 515 kts 82°
2026-05-04 16:31 55.48660 -40.23206 41224 ft 513 kts 82°
2026-05-04 16:32 55.51137 -39.85753 41251 ft 513 kts 78°
2026-05-04 16:33 55.53528 -39.60872 41257 ft 517 kts 78°
2026-05-04 16:34 55.55008 -39.44154 41258 ft 517 kts 79°
2026-05-04 16:35 55.58219 -39.06447 41274 ft 516 kts 79°
2026-05-04 16:36 55.59781 -38.87621 41271 ft 516 kts 79°
2026-05-04 16:37 55.61300 -38.68951 41282 ft 517 kts 79°
2026-05-04 16:38 55.63305 -38.43729 41289 ft 517 kts 79°
2026-05-04 16:39 55.65749 -38.12041 41293 ft 517 kts 79°
2026-05-04 16:40 55.67622 -37.86972 41302 ft 517 kts 80°
2026-05-04 16:41 55.69906 -37.55398 41303 ft 516 kts 80°
2026-05-04 16:43 55.72103 -37.23877 41303 ft 516 kts 81°
2026-05-04 16:43 55.73385 -37.04893 41309 ft 516 kts 81°
2026-05-04 16:45 55.75857 -36.66987 41310 ft 516 kts 81°
2026-05-04 16:46 55.77832 -36.35290 41311 ft 516 kts 81°
2026-05-04 16:47 55.79349 -36.09986 41309 ft 516 kts 82°
2026-05-04 16:48 55.80816 -35.84607 41329 ft 515 kts 82°
2026-05-04 16:49 55.82230 -35.59241 41331 ft 515 kts 82°
2026-05-04 16:50 55.83588 -35.33936 41336 ft 515 kts 83°
2026-05-04 16:51 55.84574 -35.14899 41332 ft 514 kts 83°
2026-05-04 16:52 55.85839 -34.89605 41335 ft 514 kts 83°
2026-05-04 16:53 55.86754 -34.70606 41344 ft 514 kts 83°
2026-05-04 16:54 55.87935 -34.45095 41345 ft 513 kts 83°
2026-05-04 16:55 55.89593 -34.07197 41349 ft 513 kts 84°
2026-05-04 16:56 55.90883 -33.75635 41346 ft 512 kts 84°
2026-05-04 16:57 55.91624 -33.56552 41351 ft 512 kts 84°
2026-05-04 16:58 55.92567 -33.31060 41346 ft 512 kts 84°
2026-05-04 17:00 55.93874 -32.93071 41349 ft 512 kts 85°
2026-05-04 17:01 55.94874 -32.61370 41349 ft 512 kts 85°
2026-05-04 17:02 55.95615 -32.36003 41352 ft 512 kts 85°
2026-05-04 17:03 55.96139 -32.16908 41355 ft 512 kts 85°
2026-05-04 17:03 55.96630 -31.97941 41349 ft 512 kts 86°
2026-05-04 17:04 55.97243 -31.72464 41346 ft 512 kts 86°
2026-05-04 17:05 55.97802 -31.47068 41347 ft 512 kts 86°
2026-05-04 17:06 55.98186 -31.28072 41346 ft 512 kts 86°
2026-05-04 17:07 55.98504 -31.11104 41346 ft 512 kts 86°
2026-05-04 17:07 55.98762 -30.96312 41346 ft 512 kts 87°
2026-05-04 17:08 55.99068 -30.77278 41346 ft 512 kts 87°
2026-05-04 17:09 55.99257 -30.64546 41342 ft 512 kts 87°
2026-05-04 17:09 55.99432 -30.51817 41341 ft 512 kts 87°
2026-05-04 17:10 55.99812 -30.20092 41338 ft 512 kts 88°
2026-05-04 17:11 55.99941 -30.07384 41336 ft 512 kts 88°
2026-05-04 17:12 56.00311 -29.88280 41336 ft 511 kts 84°
2026-05-04 17:13 56.01689 -29.56727 41336 ft 511 kts 85°
2026-05-04 17:14 56.02605 -29.31370 41336 ft 511 kts 85°
2026-05-04 17:15 56.03253 -29.12307 41329 ft 511 kts 85°
2026-05-04 17:16 56.04072 -28.87009 41332 ft 511 kts 85°
2026-05-04 17:17 56.04841 -28.61628 41324 ft 511 kts 86°
2026-05-04 17:18 56.05558 -28.36272 41332 ft 511 kts 86°
2026-05-04 17:19 56.06219 -28.11043 41317 ft 511 kts 86°
2026-05-04 17:20 56.06832 -27.85619 41320 ft 511 kts 86°
2026-05-04 17:20 56.07258 -27.66541 41325 ft 511 kts 86°
2026-05-04 17:21 56.07738 -27.43272 41314 ft 511 kts 87°
2026-05-04 17:22 56.07983 -27.30486 41312 ft 511 kts 87°
2026-05-04 17:23 56.08429 -27.05125 41314 ft 511 kts 87°
2026-05-04 17:24 56.08732 -26.86010 41306 ft 511 kts 87°
2026-05-04 17:25 56.09088 -26.60559 41311 ft 511 kts 88°
2026-05-04 17:26 56.09393 -26.35061 41287 ft 511 kts 88°
2026-05-04 17:27 56.09699 -26.03262 41281 ft 511 kts 88°
2026-05-04 17:28 56.09884 -25.77897 41290 ft 511 kts 88°
2026-05-04 17:29 56.10066 -25.39548 41286 ft 512 kts 89°
2026-05-04 17:31 56.10127 -25.07739 41289 ft 511 kts 89°
2026-05-04 17:32 56.10106 -24.75840 41285 ft 511 kts 89°
2026-05-04 17:33 56.10030 -24.50520 41285 ft 511 kts 89°
2026-05-04 17:34 56.09902 -24.25075 41287 ft 511 kts 89°
2026-05-04 17:35 56.09668 -23.93150 41281 ft 511 kts 90°
2026-05-04 17:36 56.09552 -23.80517 41279 ft 511 kts 90°
2026-05-04 17:36 56.09422 -23.67748 41279 ft 511 kts 90°
2026-05-04 17:37 56.09279 -23.54988 41280 ft 511 kts 90°
2026-05-04 17:37 56.09124 -23.42315 41285 ft 511 kts 90°
2026-05-04 17:38 56.08953 -23.29422 41280 ft 511 kts 90°
2026-05-04 17:38 56.08773 -23.16827 41276 ft 511 kts 90°
2026-05-04 17:39 56.08476 -22.97805 41277 ft 511 kts 91°
2026-05-04 17:39 56.08259 -22.84914 41278 ft 511 kts 91°
2026-05-04 17:40 56.08035 -22.72383 41283 ft 511 kts 91°
2026-05-04 17:40 56.07793 -22.59629 41268 ft 511 kts 91°
2026-05-04 17:41 56.07541 -22.47000 41275 ft 511 kts 91°
2026-05-04 17:41 56.07272 -22.34185 41269 ft 511 kts 91°
2026-05-04 17:42 56.06995 -22.21567 41270 ft 511 kts 91°
2026-05-04 17:42 56.06701 -22.08836 41274 ft 511 kts 91°
2026-05-04 17:43 56.06396 -21.96173 41267 ft 511 kts 91°
2026-05-04 17:43 56.06079 -21.83519 41265 ft 511 kts 91°
2026-05-04 17:44 56.05745 -21.70760 41261 ft 511 kts 92°
2026-05-04 17:44 56.05400 -21.58054 41262 ft 511 kts 92°
2026-05-04 17:45 56.05045 -21.45451 41270 ft 511 kts 92°
2026-05-04 17:45 56.04674 -21.32750 41258 ft 511 kts 92°
2026-05-04 17:46 56.04289 -21.20051 41258 ft 510 kts 92°
2026-05-04 17:46 56.03893 -21.07371 41258 ft 510 kts 92°
2026-05-04 17:47 56.03484 -20.94729 41253 ft 511 kts 92°
2026-05-04 17:47 56.03061 -20.82023 41255 ft 511 kts 92°
2026-05-04 17:48 56.02624 -20.69330 41254 ft 511 kts 92°
2026-05-04 17:48 56.02177 -20.56709 41250 ft 511 kts 92°
2026-05-04 17:49 56.01717 -20.44081 41253 ft 511 kts 93°
2026-05-04 17:49 56.01237 -20.31267 41250 ft 511 kts 93°
2026-05-04 17:50 56.00755 -20.18771 41248 ft 511 kts 93°
2026-05-04 17:50 56.00253 -20.06055 41244 ft 510 kts 93°
2026-05-04 17:51 56.00094 -19.93457 41246 ft 509 kts 86°
2026-05-04 17:51 56.00398 -19.80769 41242 ft 509 kts 86°
2026-05-04 17:52 56.00623 -19.68167 41240 ft 509 kts 87°
2026-05-04 17:52 56.00829 -19.55571 41242 ft 509 kts 87°
2026-05-04 17:53 56.01032 -19.42877 41238 ft 509 kts 87°
2026-05-04 17:53 56.01223 -19.30278 41237 ft 509 kts 87°
2026-05-04 17:54 56.01403 -19.17568 41236 ft 509 kts 87°
2026-05-04 17:54 56.01568 -19.04876 41233 ft 509 kts 88°
2026-05-04 17:55 56.01719 -18.92304 41238 ft 509 kts 88°
2026-05-04 17:55 56.01858 -18.79669 41216 ft 509 kts 88°
2026-05-04 17:56 56.01985 -18.66981 41227 ft 509 kts 88°
2026-05-04 17:56 56.02097 -18.54378 41235 ft 509 kts 88°
2026-05-04 17:57 56.02198 -18.41666 41214 ft 510 kts 88°
2026-05-04 17:57 56.02285 -18.29064 41221 ft 509 kts 88°
2026-05-04 17:58 56.02360 -18.16266 41235 ft 509 kts 88°
2026-05-04 17:58 56.02422 -18.03574 41208 ft 509 kts 88°
2026-05-04 17:59 56.02470 -17.90890 41209 ft 505 kts 88°
2026-05-04 17:59 56.02502 -17.78712 41209 ft 484 kts 89°
2026-05-04 18:00 56.02514 -17.72758 41220 ft 481 kts 89°
2026-05-04 18:00 56.02531 -17.60783 41218 ft 481 kts 89°
2026-05-04 18:01 56.02537 -17.49001 41205 ft 481 kts 89°
2026-05-04 18:01 56.02531 -17.37188 41221 ft 481 kts 89°
2026-05-04 18:02 56.02500 -17.19086 41210 ft 493 kts 89°
2026-05-04 18:02 56.02463 -17.06831 41209 ft 492 kts 89°
2026-05-04 18:03 56.02414 -16.94653 41205 ft 492 kts 89°
2026-05-04 18:03 56.02352 -16.82349 41219 ft 492 kts 89°
2026-05-04 18:04 56.02280 -16.70195 41205 ft 492 kts 89°
2026-05-04 18:05 56.02148 -16.51822 41201 ft 492 kts 90°
2026-05-04 18:05 56.02044 -16.39589 41203 ft 492 kts 90°
2026-05-04 18:06 56.01866 -16.21212 41197 ft 491 kts 90°
2026-05-04 18:06 56.01733 -16.08982 41199 ft 491 kts 90°
2026-05-04 18:07 56.01589 -15.96850 41195 ft 492 kts 90°
2026-05-04 18:07 56.01431 -15.84627 41194 ft 492 kts 90°
2026-05-04 18:08 56.01261 -15.72413 41191 ft 492 kts 90°
2026-05-04 18:08 56.01111 -15.62226 41192 ft 492 kts 90°
2026-05-04 18:09 56.00715 -15.37782 41185 ft 492 kts 91°
2026-05-04 18:10 56.00500 -15.25582 41183 ft 492 kts 91°
2026-05-04 18:10 56.00272 -15.13360 41184 ft 492 kts 91°
2026-05-04 18:11 56.00033 -15.01191 41182 ft 492 kts 91°
2026-05-04 18:11 55.99924 -14.88970 41186 ft 491 kts 89°
2026-05-04 18:12 56.00015 -14.76776 41171 ft 492 kts 88°
2026-05-04 18:12 56.00089 -14.64548 41170 ft 492 kts 89°
2026-05-04 18:13 56.00114 -14.52320 41170 ft 492 kts 89°
2026-05-04 18:14 56.00102 -14.33966 41168 ft 492 kts 89°
2026-05-04 18:14 56.00078 -14.21815 41173 ft 491 kts 89°
2026-05-04 18:15 55.99437 -13.97492 41167 ft 491 kts 104°
2026-05-04 18:16 55.97629 -13.85720 41161 ft 492 kts 107°
2026-05-04 18:16 55.95601 -13.74043 41159 ft 492 kts 107°
2026-05-04 18:17 55.92517 -13.56583 41158 ft 492 kts 107°
2026-05-04 18:18 55.89441 -13.39094 41151 ft 492 kts 107°
2026-05-04 18:18 55.87391 -13.27498 41152 ft 492 kts 107°
2026-05-04 18:19 55.84287 -13.10085 41149 ft 491 kts 108°
2026-05-04 18:19 55.82210 -12.98531 41154 ft 490 kts 108°
2026-05-04 18:20 55.80116 -12.86951 41144 ft 491 kts 108°
2026-05-04 18:20 55.78008 -12.75371 41141 ft 491 kts 108°
2026-05-04 18:21 55.75903 -12.63876 41144 ft 491 kts 108°
2026-05-04 18:21 55.73794 -12.52428 41144 ft 491 kts 108°
2026-05-04 18:22 55.71663 -12.40937 41144 ft 491 kts 108°
2026-05-04 18:22 55.69537 -12.29536 41141 ft 491 kts 108°
2026-05-04 18:23 55.67383 -12.18059 41140 ft 490 kts 108°
2026-05-04 18:23 55.65238 -12.06697 41135 ft 489 kts 109°
2026-05-04 18:24 55.63066 -11.95262 41138 ft 489 kts 109°
2026-05-04 18:24 55.60858 -11.83710 41133 ft 489 kts 109°
2026-05-04 18:25 55.58706 -11.72512 41133 ft 489 kts 109°
2026-05-04 18:25 55.56509 -11.61148 41129 ft 489 kts 109°
2026-05-04 18:26 55.54301 -11.49794 41132 ft 489 kts 109°
2026-05-04 18:26 55.52075 -11.38419 41132 ft 489 kts 109°
2026-05-04 18:27 55.49833 -11.27026 41129 ft 489 kts 109°
2026-05-04 18:27 55.47608 -11.15783 41131 ft 489 kts 109°
2026-05-04 18:28 55.45355 -11.04466 41130 ft 489 kts 109°
2026-05-04 18:28 55.43072 -10.93065 41129 ft 489 kts 109°
2026-05-04 18:29 55.40818 -10.81875 41127 ft 489 kts 110°
2026-05-04 18:29 55.38538 -10.70613 41127 ft 489 kts 110°
2026-05-04 18:30 55.35094 -10.53732 41126 ft 489 kts 110°
2026-05-04 18:31 55.32791 -10.42522 41121 ft 489 kts 110°
2026-05-04 18:31 55.30472 -10.31295 41123 ft 489 kts 110°
2026-05-04 18:32 55.28147 -10.20100 41119 ft 488 kts 110°
2026-05-04 18:32 55.25803 -10.08881 41121 ft 488 kts 110°
2026-05-04 18:33 55.23476 -9.97801 41125 ft 488 kts 110°
2026-05-04 18:33 55.21149 -9.86612 41118 ft 488 kts 110°
2026-05-04 18:34 55.18828 -9.75401 41118 ft 488 kts 110°
2026-05-04 18:34 55.16503 -9.64282 41119 ft 488 kts 110°
2026-05-04 18:35 55.14132 -9.53030 41115 ft 488 kts 110°
2026-05-04 18:35 55.11795 -9.41996 41116 ft 488 kts 110°
2026-05-04 18:36 55.09435 -9.30917 41118 ft 487 kts 111°
2026-05-04 18:36 55.07068 -9.19862 41116 ft 487 kts 111°
2026-05-04 18:37 55.04691 -9.08817 41117 ft 487 kts 111°
2026-05-04 18:37 55.02291 -8.97732 41114 ft 487 kts 111°
2026-05-04 18:38 54.99896 -8.86726 41113 ft 487 kts 111°
2026-05-04 18:38 54.97480 -8.75683 41113 ft 487 kts 111°
2026-05-04 18:39 54.95062 -8.64688 41100 ft 487 kts 111°
2026-05-04 18:39 54.92639 -8.53730 41108 ft 486 kts 111°
2026-05-04 18:40 54.90207 -8.42786 41103 ft 485 kts 111°
2026-05-04 18:40 54.87773 -8.31893 41103 ft 484 kts 111°
2026-05-04 18:41 54.85326 -8.21001 41101 ft 484 kts 112°
2026-05-04 18:41 54.82866 -8.10102 41105 ft 485 kts 112°
2026-05-04 18:42 54.80403 -7.99249 41098 ft 485 kts 112°
2026-05-04 18:42 54.77919 -7.88361 41100 ft 485 kts 112°
2026-05-04 18:43 54.75430 -7.77506 41088 ft 485 kts 112°
2026-05-04 18:43 54.72936 -7.66685 41093 ft 484 kts 112°
2026-05-04 18:44 54.70443 -7.55922 41099 ft 483 kts 112°
2026-05-04 18:44 54.67925 -7.45107 41094 ft 482 kts 112°
2026-05-04 18:45 54.65419 -7.34397 41094 ft 482 kts 112°
2026-05-04 18:45 54.62900 -7.23686 41092 ft 482 kts 112°
2026-05-04 18:46 54.60377 -7.13013 41092 ft 482 kts 112°
2026-05-04 18:46 54.57830 -7.02285 41087 ft 482 kts 112°
2026-05-04 18:47 54.55281 -6.91608 41081 ft 482 kts 112°
2026-05-04 18:47 54.52721 -6.80935 41082 ft 481 kts 112°
2026-05-04 18:48 54.50167 -6.70341 41085 ft 479 kts 112°
2026-05-04 18:48 54.47618 -6.59817 41083 ft 479 kts 113°
2026-05-04 18:49 54.45035 -6.49204 41074 ft 479 kts 113°
2026-05-04 18:49 54.42447 -6.38622 41078 ft 480 kts 113°
2026-05-04 18:50 54.39858 -6.28090 41081 ft 479 kts 113°
2026-05-04 18:50 54.37261 -6.17573 41081 ft 479 kts 113°
2026-05-04 18:51 54.34655 -6.07069 41084 ft 479 kts 113°
2026-05-04 18:51 54.32058 -5.96655 41083 ft 478 kts 113°
2026-05-04 18:52 54.29427 -5.86152 41086 ft 477 kts 113°
2026-05-04 18:52 54.26788 -5.75665 41088 ft 477 kts 113°
2026-05-04 18:53 54.24182 -5.65358 41084 ft 477 kts 113°
2026-05-04 18:53 54.21541 -5.54963 41085 ft 477 kts 113°
2026-05-04 18:54 54.18891 -5.44579 41088 ft 477 kts 114°
2026-05-04 18:54 54.16681 -5.35955 41087 ft 477 kts 114°
2026-05-04 18:55 54.14003 -5.25551 41084 ft 477 kts 114°
2026-05-04 18:55 54.09991 -5.10056 41084 ft 477 kts 114°
2026-05-04 18:56 54.07302 -4.99730 41082 ft 477 kts 114°
2026-05-04 18:56 54.04608 -4.89431 41085 ft 477 kts 114°
2026-05-04 18:57 54.01900 -4.79126 41080 ft 477 kts 114°
2026-05-04 18:57 53.99179 -4.68818 41079 ft 477 kts 114°
2026-05-04 18:58 53.96461 -4.58567 41073 ft 477 kts 114°
2026-05-04 18:58 53.93734 -4.48329 41077 ft 477 kts 114°
2026-05-04 18:59 53.90976 -4.38102 41070 ft 476 kts 116°
2026-05-04 18:59 53.87416 -4.28616 41075 ft 474 kts 126°
2026-05-04 19:00 53.83617 -4.19534 41077 ft 473 kts 124°
2026-05-04 19:00 53.79891 -4.10382 41075 ft 472 kts 124°
2026-05-04 19:01 53.76132 -4.01257 41074 ft 472 kts 125°
2026-05-04 19:01 53.72378 -3.92218 41071 ft 473 kts 125°
2026-05-04 19:02 53.68601 -3.83133 41069 ft 472 kts 125°
2026-05-04 19:02 53.64829 -3.74083 41070 ft 472 kts 125°
2026-05-04 19:03 53.61032 -3.65007 41071 ft 472 kts 125°
2026-05-04 19:03 53.57262 -3.55981 41070 ft 472 kts 126°
2026-05-04 19:04 53.53455 -3.46981 41068 ft 473 kts 126°
2026-05-04 19:04 53.49566 -3.37809 41071 ft 474 kts 126°
2026-05-04 19:05 53.45793 -3.28923 41068 ft 481 kts 126°
2026-05-04 19:05 53.42456 -3.21086 41072 ft 490 kts 126°
2026-05-04 19:06 53.38475 -3.11770 41074 ft 490 kts 126°
2026-05-04 19:06 53.34455 -3.02641 41075 ft 490 kts 127°
2026-05-04 19:07 53.30353 -2.93521 41075 ft 490 kts 127°
2026-05-04 19:07 53.26265 -2.84435 41076 ft 491 kts 127°
2026-05-04 19:08 53.22196 -2.75366 41030 ft 490 kts 127°
2026-05-04 19:08 53.20152 -2.70825 40785 ft 487 kts 127°
2026-05-04 19:08 53.18121 -2.66327 40190 ft 485 kts 128°
2026-05-04 19:09 53.16083 -2.61819 39470 ft 487 kts 127°
2026-05-04 19:09 53.14071 -2.57381 38816 ft 487 kts 127°
2026-05-04 19:09 53.12047 -2.52794 37988 ft 487 kts 124°
2026-05-04 19:09 53.10155 -2.48121 37299 ft 484 kts 123°
2026-05-04 19:10 53.08326 -2.43576 36913 ft 475 kts 123°
2026-05-04 19:10 53.06517 -2.39113 36484 ft 469 kts 123°
2026-05-04 19:10 53.04692 -2.34652 35994 ft 463 kts 123°
2026-05-04 19:10 53.02649 -2.30558 35507 ft 460 kts 135°
2026-05-04 19:11 53.00121 -2.27336 35036 ft 457 kts 145°
2026-05-04 19:11 52.97469 -2.24525 34550 ft 454 kts 146°
2026-05-04 19:11 52.94794 -2.21752 34067 ft 450 kts 146°
2026-05-04 19:11 52.92153 -2.19009 33514 ft 446 kts 146°
2026-05-04 19:12 52.89544 -2.16296 33051 ft 441 kts 145°
2026-05-04 19:12 52.84406 -2.10945 32120 ft 430 kts 145°
2026-05-04 19:12 52.81906 -2.08342 31666 ft 426 kts 145°
2026-05-04 19:13 52.79412 -2.05748 31209 ft 422 kts 145°
2026-05-04 19:13 52.76933 -2.03173 30765 ft 418 kts 145°
2026-05-04 19:13 52.74477 -2.00625 30317 ft 415 kts 146°
2026-05-04 19:13 52.72047 -1.98102 29828 ft 411 kts 148°
2026-05-04 19:14 52.69637 -1.95607 29357 ft 406 kts 148°
2026-05-04 19:14 52.67258 -1.93149 28926 ft 401 kts 149°
2026-05-04 19:14 52.64904 -1.90718 28489 ft 397 kts 149°
2026-05-04 19:14 52.62575 -1.88317 28054 ft 392 kts 149°
2026-05-04 19:15 52.60294 -1.85968 27630 ft 388 kts 149°
2026-05-04 19:15 52.58017 -1.83626 27201 ft 385 kts 150°
2026-05-04 19:15 52.55755 -1.81303 26772 ft 382 kts 150°
2026-05-04 19:15 52.53510 -1.79000 26345 ft 379 kts 150°
2026-05-04 19:16 52.51250 -1.76688 25921 ft 388 kts 150°
2026-05-04 19:16 52.48961 -1.74347 25471 ft 385 kts 151°
2026-05-04 19:16 52.46700 -1.72035 25024 ft 382 kts 151°
2026-05-04 19:16 52.44448 -1.69735 24592 ft 379 kts 152°
2026-05-04 19:17 52.42238 -1.67481 24166 ft 377 kts 152°
2026-05-04 19:17 52.40018 -1.65220 23711 ft 374 kts 152°
2026-05-04 19:17 52.37811 -1.62976 23229 ft 371 kts 152°
2026-05-04 19:17 52.35603 -1.60734 22778 ft 367 kts 152°
2026-05-04 19:18 52.33473 -1.58573 22368 ft 363 kts 152°
2026-05-04 19:18 52.31340 -1.56412 21936 ft 359 kts 152°
2026-05-04 19:18 52.29228 -1.54275 21512 ft 355 kts 152°
2026-05-04 19:18 52.27134 -1.52157 21087 ft 352 kts 152°
2026-05-04 19:19 52.25065 -1.50069 20668 ft 348 kts 151°
2026-05-04 19:19 52.23012 -1.47998 20274 ft 346 kts 151°
2026-05-04 19:19 52.21049 -1.45751 19877 ft 344 kts 143°
2026-05-04 19:19 52.19173 -1.43199 19562 ft 356 kts 142°
2026-05-04 19:20 52.17285 -1.40553 19190 ft 358 kts 141°
2026-05-04 19:20 52.15400 -1.37907 18831 ft 357 kts 141°
2026-05-04 19:20 52.13549 -1.35316 18469 ft 355 kts 141°
2026-05-04 19:20 52.11656 -1.32674 18074 ft 353 kts 141°
2026-05-04 19:21 52.09821 -1.30117 17725 ft 351 kts 141°
2026-05-04 19:21 52.07964 -1.27534 17350 ft 350 kts 141°
2026-05-04 19:21 52.06114 -1.24966 17006 ft 349 kts 141°
2026-05-04 19:21 52.04271 -1.22409 16641 ft 348 kts 141°
2026-05-04 19:22 52.02437 -1.19869 16275 ft 346 kts 141°
2026-05-04 19:22 52.00601 -1.17328 15918 ft 345 kts 141°
2026-05-04 19:22 51.98778 -1.14806 15566 ft 344 kts 141°
2026-05-04 19:22 51.96960 -1.12296 15220 ft 343 kts 141°
2026-05-04 19:23 51.95142 -1.09788 14861 ft 342 kts 141°
2026-05-04 19:23 51.93329 -1.07283 14389 ft 341 kts 140°
2026-05-04 19:23 51.91549 -1.04834 13946 ft 339 kts 140°
2026-05-04 19:23 51.89781 -1.02404 13695 ft 328 kts 141°
2026-05-04 19:24 51.88067 -1.00050 13497 ft 317 kts 141°
2026-05-04 19:24 51.86421 -0.97788 13282 ft 306 kts 140°
2026-05-04 19:24 51.85021 -0.95259 13013 ft 299 kts 122°
2026-05-04 19:24 51.84048 -0.92339 12753 ft 292 kts 117°
2026-05-04 19:25 51.83173 -0.89414 12468 ft 286 kts 117°
2026-05-04 19:25 51.82312 -0.86547 12113 ft 282 kts 116°
2026-05-04 19:25 51.81451 -0.83700 11748 ft 280 kts 117°
2026-05-04 19:25 51.80595 -0.80892 11398 ft 277 kts 117°
2026-05-04 19:26 51.79752 -0.78131 11059 ft 274 kts 117°
2026-05-04 19:26 51.78909 -0.75379 10742 ft 270 kts 117°
2026-05-04 19:26 51.78084 -0.72693 10470 ft 266 kts 117°
2026-05-04 19:26 51.77263 -0.70024 10173 ft 264 kts 117°
2026-05-04 19:27 51.76479 -0.67477 9821 ft 263 kts 117°
2026-05-04 19:27 51.75669 -0.64851 9496 ft 260 kts 117°
2026-05-04 19:27 51.74867 -0.62254 9140 ft 259 kts 118°
2026-05-04 19:27 51.74081 -0.59711 8758 ft 258 kts 117°
2026-05-04 19:28 51.73274 -0.57092 8346 ft 258 kts 118°
2026-05-04 19:28 51.72233 -0.54808 7957 ft 254 kts 141°
2026-05-04 19:28 51.70700 -0.53578 7627 ft 246 kts 171°
2026-05-04 19:28 51.69020 -0.53710 7215 ft 242 kts 201°
2026-05-04 19:29 51.67686 -0.55059 7058 ft 236 kts 225°
2026-05-04 19:29 51.66574 -0.56969 7016 ft 236 kts 230°
2026-05-04 19:29 51.65499 -0.58992 7022 ft 238 kts 231°
2026-05-04 19:29 51.64439 -0.61005 7021 ft 238 kts 231°
2026-05-04 19:30 51.63385 -0.63026 6911 ft 239 kts 231°
2026-05-04 19:30 51.62315 -0.65065 6668 ft 237 kts 230°
2026-05-04 19:30 51.61253 -0.67082 6396 ft 236 kts 231°
2026-05-04 19:30 51.60179 -0.69115 6110 ft 235 kts 231°
2026-05-04 19:31 51.59133 -0.71090 5825 ft 235 kts 230°
2026-05-04 19:31 51.58084 -0.73084 5462 ft 234 kts 231°
2026-05-04 19:31 51.57027 -0.75094 5082 ft 235 kts 230°
2026-05-04 19:31 51.55974 -0.77117 4733 ft 234 kts 231°
2026-05-04 19:32 51.54950 -0.79088 4573 ft 225 kts 230°
2026-05-04 19:32 51.53968 -0.80985 4420 ft 215 kts 231°
2026-05-04 19:32 51.53031 -0.82791 4279 ft 206 kts 230°
2026-05-04 19:32 51.52130 -0.84532 4075 ft 200 kts 230°
2026-05-04 19:33 51.51252 -0.86218 4017 ft 195 kts 230°
2026-05-04 19:33 51.50167 -0.87466 3997 ft 197 kts 198°
2026-05-04 19:33 51.48835 -0.87481 3990 ft 193 kts 158°
2026-05-04 19:33 51.47889 -0.86075 4002 ft 187 kts 111°
2026-05-04 19:34 51.47650 -0.84057 4006 ft 185 kts 89°
2026-05-04 19:34 51.47656 -0.82069 4001 ft 186 kts 88°
2026-05-04 19:34 51.47654 -0.79986 3970 ft 186 kts 89°
2026-05-04 19:34 51.47649 -0.77922 3781 ft 183 kts 89°
2026-05-04 19:35 51.47650 -0.75897 3520 ft 180 kts 89°
2026-05-04 19:35 51.47658 -0.73909 3276 ft 175 kts 88°
2026-05-04 19:35 51.47664 -0.72024 3010 ft 164 kts 87°
2026-05-04 19:35 51.47669 -0.70237 2797 ft 158 kts 87°
2026-05-04 19:36 51.47676 -0.68496 2587 ft 157 kts 88°
2026-05-04 19:36 51.47682 -0.66783 2381 ft 156 kts 88°
2026-05-04 19:36 51.47688 -0.65054 2157 ft 155 kts 87°
2026-05-04 19:36 51.47695 -0.63324 1942 ft 155 kts 87°
2026-05-04 19:37 51.47701 -0.61591 1735 ft 155 kts 86°
2026-05-04 19:37 51.47707 -0.59875 1501 ft 149 kts 86°
2026-05-04 19:37 51.47711 -0.58308 1324 ft 136 kts 86°
2026-05-04 19:37 51.47717 -0.56841 1138 ft 128 kts 86°
2026-05-04 19:38 51.47721 -0.55393 994 ft 129 kts 85°
2026-05-04 19:38 51.47719 -0.53943 798 ft 130 kts 85°
2026-05-04 19:38 51.47737 -0.52525 639 ft 129 kts 85°
2026-05-04 19:38 51.47755 -0.51096 454 ft 128 kts 87°
2026-05-04 19:39 51.47757 -0.49646 268 ft 130 kts 87°
2026-05-04 19:39 51.47753 -0.48190 115 ft 129 kts 87°
2026-05-04 19:39 51.47757 -0.46836 98 ft 102 kts 90°
2026-05-04 19:39 51.47758 -0.45988 94 ft 50 kts 89°
2026-05-04 19:40 51.47759 -0.45683 94 ft 18 kts 90°
2026-05-04 19:40 51.47730 -0.45491 96 ft 17 kts 137°
2026-05-04 19:40 51.47637 -0.45469 94 ft 14 kts 178°
2026-05-04 19:40 51.47596 -0.45557 96 ft 12 kts 269°
2026-05-04 19:41 51.47595 -0.45656 96 ft 15 kts 269°
2026-05-04 19:41 51.47593 -0.45911 95 ft 19 kts 270°
2026-05-04 19:41 51.47594 -0.46088 95 ft 17 kts 270°
2026-05-04 19:41 51.47593 -0.46307 95 ft 22 kts 270°
2026-05-04 19:42 51.47593 -0.46426 95 ft 13 kts 270°
2026-05-04 19:42 51.47592 -0.46595 95 ft 17 kts 270°
2026-05-04 19:42 51.47592 -0.46773 92 ft 16 kts 268°
2026-05-04 19:42 51.47567 -0.46923 96 ft 7 kts 217°
2026-05-04 19:43 51.47505 -0.46921 96 ft 11 kts 165°
2026-05-04 19:43 51.47414 -0.46880 95 ft 16 kts 164°
2026-05-04 19:43 51.47308 -0.46866 92 ft 16 kts 179°
2026-05-04 19:43 51.47200 -0.46864 96 ft 15 kts 179°
2026-05-04 19:44 51.47110 -0.46864 94 ft 9 kts 180°
2026-05-04 19:44 51.47054 -0.46812 97 ft 11 kts 107°
2026-05-04 19:44 51.47023 -0.46698 95 ft 13 kts 141°
2026-05-04 19:44 51.46937 -0.46600 97 ft 17 kts 144°
2026-05-04 19:45 51.46877 -0.46526 96 ft 5 kts 118°
2026-05-04 19:45 51.46883 -0.46470 93 ft 7 kts 73°
2026-05-04 19:45 51.46898 -0.46429 97 ft 3 kts 57°
2026-05-04 19:45 51.46904 -0.46415 97 ft 0 kts 56°
2026-05-04 19:46 51.46905 -0.46412 95 ft 0 kts 56°